Voltar ao catálogo

STARLINK-34503

AtivoComunicaçõesVLEO
NORAD 64420·PAYLOAD·🇺🇸 United States

Lançado Jun 17, 2025 de Vandenberg Space Force Base

Loading…

Próximas Passagens (próximas 24 horas)

TLE

AtualizadoSource: CelesTrak SupGP

Época: Sep 15, 2026, 03:03 UTC

1 64420C 25129J   26258.12756944  .00042714  00000+0  14855-2 0  2586
2 64420  69.9999 315.0807 0003446 266.4774 205.6797 15.29564039    17

Acompanhe STARLINK-34503 em tempo real com AllMySat

Download on the App Store